Temperature
22 22 21 21 22 22 23 24 25 24 25 25 25 24 23 22 21 19 18 18 18 17 17 18 18 18 17 17 17 18 18 17 17 17 17 17 17 17 17 17 17 17 17 17 17 17 17 17 18
22 21 21 22 22 22 23 24 24 24 24 24 25 24 23 22 20 18 18 18 18 17 17 18 18 18 17 17 17 17 17 17 17 17 17 17 17 17 17 17 17 17 17 17 17 17 17 17 17
22 22 22 23 23 23 23 24 24 25 25 25 24 24 22 21 20 18 18 18 17 17 17 18 18 18 17 17 17 17 17 17 17 17 17 17 17 17 17 17 17 17 17 17 17 17 17 17 17
22 22 24 23 23 24 24 24 25 25 25 25 24 23 21 20 19 19 18 18 17 17 17 18 18 18 17 17 17 17 17 17 17 17 17 17 17 17 17 17 17 17 17 17 17 17 17 17 17
22 23 23 23 24 24 25 25 25 25 25 24 24 22 20 19 19 18 18 18 18 17 17 17 17 17 17 17 17 17 17 17 17 17 17 17 17 17 17 17 17 17 17 17 17 17 17 17 17
23 24 23 23 24 24 25 25 25 25 25 24 23 22 20 19 19 18 18 18 18 17 17 17 17 17 17 17 17 17 17 17 17 17 17 17 17 17 17 17 17 17 17 17 17 17 17 17 17
23 23 23 23 23 24 25 25 25 25 24 24 24 22 20 19 19 18 18 18 18 17 17 17 17 17 17 17 17 17 17 17 16 16 16 16 16 16 16 16 17 17 16 16 17 17 17 17 17
24 24 24 24 23 24 25 25 25 24 24 24 23 22 20 19 18 18 18 18 18 17 17 17 17 17 17 17 17 16 16 16 16 16 16 16 16 16 16 16 16 16 16 16 16 16 16 16 16
24 23 23 24 24 24 25 25 25 24 24 23 22 21 20 19 19 18 18 18 18 17 17 17 17 17 17 17 16 16 16 16 16 16 16 16 16 16 16 16 16 16 16 16 16 16 16 16 16
25 23 24 25 25 25 25 25 25 24 23 23 21 20 20 19 19 18 18 18 18 18 17 17 17 17 16 16 16 16 16 16 16 16 16 16 16 16 16 16 16 16 16 16 16 16 16 16 16
25 24 25 26 25 25 25 25 25 24 23 23 21 20 20 19 19 19 19 18 18 17 17 17 17 17 17 16 16 16 16 16 16 16 16 16 16 16 15 15 16 16 16 16 16 16 16 16 16
25 25 26 25 25 25 25 24 24 24 23 22 21 21 20 20 19 19 19 18 18 18 17 17 17 17 17 17 16 16 16 16 16 16 16 16 16 15 15 15 15 15 15 15 15 16 16 16 16
25 25 25 25 25 24 24 24 24 23 23 22 22 21 20 20 20 19 19 18 18 18 17 17 17 17 17 17 16 16 16 16 16 16 16 16 16 15 15 15 15 15 15 15 15 15 15 15 16
25 25 25 25 25 24 24 24 24 23 23 22 22 21 20 20 20 19 19 19 18 18 17 17 17 17 17 16 16 16 16 16 16 15 15 15 15 15 15 15 15 15 15 15 15 15 15 15 15
25 25 25 25 25 25 24 23 24 23 23 22 22 21 21 20 20 20 19 19 18 18 17 17 17 17 17 16 16 16 16 16 15 15 15 15 15 15 15 15 15 15 15 15 15 15 15 15 15
25 24 23 25 25 25 24 22 24 23 23 22 22 21 21 20 20 20 19 19 18 18 18 17 17 17 17 16 16 16 16 15 15 15 15 15 15 15 15 15 15 15 15 15 15 15 15 15 15
24 24 24 24 25 25 24 23 23 23 23 23 22 21 21 20 20 20 19 19 18 18 18 17 17 17 17 16 16 16 15 15 15 15 15 15 15 15 15 15 15 14 14 15 15 14 15 15 14
23 24 24 24 25 25 24 23 23 23 23 23 22 22 21 20 20 19 19 19 18 18 18 17 17 17 16 16 16 16 15 15 15 15 15 15 15 15 15 15 14 14 14 14 14 14 14 14 14
25 25 24 24 25 24 24 23 23 23 23 23 22 22 21 20 20 19 19 19 18 18 18 17 17 17 16 16 16 15 15 15 15 15 15 15 15 15 14 14 14 14 14 14 14 14 14 14 14
24 24 24 25 25 24 24 24 23 23 23 23 22 22 21 21 20 19 19 18 18 18 18 17 17 17 16 16 16 15 15 15 15 15 15 15 15 15 14 14 14 14 14 14 14 14 14 14 14
24 24 24 24 24 25 24 23 23 23 23 22 22 22 21 20 19 19 19 18 18 17 17 17 17 17 16 16 16 15 15 15 15 15 15 15 14 14 14 14 14 14 14 14 13 13 13 14 14
23 24 24 24 23 23 23 22 22 23 22 22 22 22 21 20 19 19 18 18 18 17 17 17 17 16 16 16 16 15 15 15 15 15 14 14 14 14 14 14 14 14 13 13 13 13 13 13 13
23 24 24 24 23 23 23 23 23 23 22 22 22 22 21 20 19 19 18 17 17 17 17 17 17 16 16 16 16 15 15 15 15 15 14 14 14 14 14 14 14 13 13 13 13 13 13 13 13
24 23 23 23 23 21 23 23 22 23 22 22 22 22 21 20 19 18 18 17 17 17 17 16 16 16 16 16 15 15 15 15 15 15 14 14 14 14 14 14 13 13 13 13 13 13 13 13 13
23 22 21 21 21 22 24 23 22 23 23 22 22 21 21 20 19 18 17 17 16 16 16 16 16 16 16 16 15 15 15 15 15 14 14 14 14 14 14 13 13 13 13 13 13 13 13 13 12
22 22 20 20 21 22 23 23 22 23 23 23 22 21 20 20 19 18 17 17 16 16 16 16 16 16 16 16 15 15 15 14 14 14 14 14 14 14 14 13 13 13 13 13 13 12 12 12 12
22 22 22 21 22 22 23 23 22 23 22 22 22 21 20 20 19 18 17 17 16 16 16 16 16 16 15 15 15 15 15 14 14 14 14 14 14 14 14 13 13 13 13 13 12 12 12 12 12
22 22 21 21 20 21 22 22 21 21 21 22 21 21 20 20 19 18 17 17 16 16 16 16 16 15 15 15 15 15 14 14 14 14 14 14 14 13 13 13 13 13 13 12 12 12 12 12 12
21 21 21 21 21 20 20 21 22 21 21 21 21 21 20 19 19 18 17 16 16 16 15 15 15 15 15 15 14 14 14 14 14 14 13 13 13 13 13 13 13 12 12 12 12 12 12 12 12
22 21 21 20 20 21 20 20 23 22 22 21 21 21 20 19 18 18 17 16 16 16 15 15 15 15 15 14 14 14 14 14 14 13 13 13 13 13 13 12 12 12 12 12 12 12 12 12 12
Wind_Speed
9 10 7 3 3 0 6 7 9 7 7 8 8 8 12 11 8 7 3 4 8 10 11 11 10 11 11 11 12 12 12 12 12 12 12 12 12 12 12 12 12 12 12 11 12 12 12 12 11
10 6 4 3 1 2 6 7 10 9 7 5 7 10 12 10 9 7 4 5 8 10 12 10 10 10 11 11 12 12 12 12 12 12 12 12 12 12 13 13 13 13 13 12 12 12 12 11 10
9 7 4 2 3 4 6 8 8 8 5 5 7 10 8 6 7 5 5 6 9 11 13 11 10 10 11 11 11 12 12 12 12 12 12 12 12 12 13 13 13 13 13 13 12 12 12 11 10
5 4 3 1 7 7 8 7 6 6 6 6 7 8 7 7 6 8 7 8 10 10 13 11 10 10 10 11 11 12 12 12 12 12 12 12 12 13 13 13 13 13 13 12 12 13 12 11 9
4 3 1 3 7 7 7 7 5 6 7 8 9 9 8 9 11 10 7 7 8 9 12 12 11 10 11 11 11 11 12 12 12 12 11 11 12 12 12 13 13 13 13 13 12 12 12 11 9
3 2 1 4 6 6 5 5 6 6 8 8 9 9 7 8 8 7 7 6 7 9 11 12 11 11 11 11 11 11 11 11 11 11 10 10 11 11 11 12 12 12 12 12 12 11 10 10 9
3 2 0 4 4 4 4 4 5 6 7 6 5 7 7 8 7 6 7 6 6 8 9 9 10 11 11 11 11 11 11 10 10 9 9 9 9 10 11 11 11 11 11 11 11 10 9 9 8
3 2 1 3 4 3 4 4 6 6 6 5 4 6 7 8 8 7 6 7 6 7 7 6 7 10 10 10 10 10 9 8 8 7 7 7 7 9 10 10 10 10 10 10 9 9 8 7 6
4 2 1 3 3 4 5 5 6 6 6 7 9 11 10 12 9 8 7 6 5 6 5 5 5 7 8 8 9 8 8 6 6 5 5 5 6 6 7 9 9 9 9 8 7 6 5 5 4
3 1 2 3 3 4 4 4 3 5 6 7 10 12 12 10 9 8 7 7 6 5 5 4 5 5 6 6 7 6 6 4 4 4 4 3 5 6 8 8 7 7 6 6 4 3 3 2 1
1 1 3 4 5 4 4 3 2 4 4 6 9 11 10 9 8 7 7 7 6 6 5 5 5 5 5 4 5 3 4 3 3 3 5 4 5 6 6 4 4 4 4 3 2 2 2 2 3
1 2 2 4 4 3 2 2 3 5 5 8 9 10 9 8 7 6 6 7 7 6 5 5 4 4 5 5 3 3 3 2 3 3 5 4 3 2 3 3 3 2 3 4 4 3 4 6 6
2 2 2 3 3 3 3 2 2 4 6 8 9 9 8 8 7 6 6 7 8 6 6 5 4 5 4 4 2 3 3 2 4 4 5 5 3 1 2 3 3 3 4 4 3 4 5 6 6
2 3 3 4 4 3 2 2 1 4 6 8 8 8 6 6 7 7 6 6 7 6 6 5 5 4 4 3 3 3 3 4 5 4 5 5 4 2 3 3 3 3 4 3 3 3 4 4 5
3 4 4 4 5 4 3 3 4 5 7 7 7 7 6 6 5 5 6 6 7 6 6 5 4 4 4 4 3 3 3 4 3 4 4 4 4 4 3 2 2 3 4 4 3 4 3 3 4
6 6 5 5 5 5 5 3 5 6 6 6 6 7 6 5 5 5 5 5 6 7 6 5 3 4 4 4 3 3 3 4 3 4 4 3 3 5 4 2 2 3 4 3 2 3 3 3 3
7 7 6 5 6 5 6 3 5 5 6 6 6 7 7 6 5 5 5 5 6 7 7 6 4 4 4 4 3 3 3 3 4 4 3 3 4 5 5 2 2 4 3 2 2 3 2 2 2
5 6 5 5 5 6 6 4 6 6 5 5 5 6 6 6 6 6 6 4 5 6 6 7 5 4 4 3 3 2 2 2 3 3 3 3 4 5 5 2 2 3 2 2 2 3 3 2 2
6 6 4 3 4 5 7 6 7 7 6 5 5 6 6 5 6 7 6 5 5 5 5 6 6 5 4 3 2 2 1 1 2 2 3 3 4 4 4 2 2 2 2 1 2 2 2 1 1
7 7 5 3 3 5 6 7 6 8 8 6 5 5 5 5 6 6 6 5 4 4 5 6 6 5 5 4 3 2 2 2 2 1 2 2 2 2 3 2 1 1 2 2 2 1 1 1 1
8 7 5 4 4 7 7 7 8 8 8 7 6 5 5 5 6 5 4 4 4 3 3 3 4 5 5 4 3 2 2 1 2 1 1 1 3 3 3 2 1 1 1 1 1 1 1 1 2
7 5 6 6 6 6 7 5 6 8 9 8 6 5 6 6 6 6 4 3 3 3 3 3 4 5 4 4 3 3 3 2 2 2 2 1 2 2 2 1 1 1 1 1 0 1 1 1 2
5 6 8 8 8 9 9 7 5 9 9 8 7 6 6 6 6 6 5 4 3 3 3 3 4 4 4 4 3 3 2 2 2 2 3 2 1 1 1 1 1 1 1 1 1 1 1 1 1
5 7 9 9 7 8 10 7 3 5 8 7 7 6 6 6 7 6 6 5 4 4 2 2 3 3 4 4 4 3 3 3 2 2 2 2 1 1 1 1 0 1 1 1 1 1 1 1 2
5 5 4 5 6 6 5 5 1 4 7 7 7 6 6 6 6 6 6 5 4 3 2 2 3 3 4 4 3 3 2 2 3 2 2 2 2 1 1 1 0 1 1 1 1 1 1 1 1
6 5 5 4 4 3 3 3 4 7 7 7 6 7 6 6 6 6 6 5 4 4 3 2 2 2 3 4 3 3 3 2 2 2 2 2 2 2 2 2 1 1 1 1 1 1 1 1 1
4 5 7 7 9 6 3 4 5 6 6 6 5 6 6 6 6 6 6 5 4 4 3 2 3 3 2 3 2 3 3 2 2 2 2 1 1 1 2 2 1 1 1 1 1 0 1 1 1
7 6 5 5 4 5 4 4 3 6 5 4 4 4 4 5 5 6 6 5 4 4 4 3 3 3 2 2 1 2 2 2 2 2 2 2 2 1 2 2 2 1 1 1 1 1 1 1 1
6 6 5 5 5 4 4 1 3 5 5 4 4 3 4 5 5 5 5 5 5 4 3 3 3 3 3 3 2 1 2 2 2 1 2 2 2 2 2 2 2 1 1 1 1 0 0 0 1
5 6 6 5 5 5 5 0 4 6 5 4 3 3 3 3 4 4 4 4 4 4 4 4 3 3 2 3 3 1 1 1 1 0 0 2 2 2 1 2 2 1 1 1 1 1 0 0 1
Wind_Direction
268 249 247 265 262 166 71 67 69 59 57 47 47 61 66 52 52 85 112 75 90 98 93 79 70 69 68 71 71 68 67 66 67 70 70 69 69 67 64 63 64 66 69 73 74 71 70 71 69
275 262 263 247 273 89 77 76 74 69 72 73 64 67 73 65 72 96 108 87 91 95 91 82 75 72 71 74 74 72 70 69 71 72 72 71 70 68 65 63 65 67 68 70 72 72 71 68 65
269 264 266 270 34 71 85 83 87 84 73 77 75 61 55 65 79 101 113 113 96 92 91 86 81 77 75 76 77 76 73 72 73 73 74 73 71 70 68 65 65 67 68 69 70 70 67 66 62
268 258 250 53 71 69 92 98 99 99 80 70 86 77 71 54 81 103 115 109 100 101 99 94 88 85 83 81 81 78 76 74 75 76 75 74 71 69 69 67 67 66 66 67 69 69 65 64 58
249 266 223 97 85 84 86 91 89 81 80 72 77 90 88 79 93 103 107 106 106 107 109 108 100 94 91 88 85 82 79 77 75 76 76 76 73 69 67 68 67 66 64 63 65 65 63 61 55
268 260 225 109 98 88 79 80 80 81 85 89 99 102 96 102 100 105 103 96 102 107 114 118 115 107 101 96 91 87 85 82 79 75 76 78 75 73 71 70 68 66 65 64 63 61 60 59 55
282 293 119 106 104 104 97 82 78 78 73 64 76 98 114 111 108 108 107 101 96 101 106 119 130 122 112 107 101 96 92 88 86 82 81 83 82 79 75 74 70 68 66 66 65 63 58 54 52
292 299 124 120 128 109 99 92 83 73 71 60 56 100 125 128 128 120 114 104 104 100 103 109 120 124 126 121 112 108 101 96 95 92 85 90 92 89 84 79 72 69 68 68 67 64 59 53 49
275 282 127 119 133 116 113 105 96 98 90 76 68 83 117 131 135 131 122 113 105 101 101 106 103 110 114 115 112 118 111 101 103 102 91 100 93 94 93 87 85 77 72 70 69 66 63 57 45
237 296 75 87 100 112 115 101 108 120 104 98 96 100 118 134 140 142 141 132 120 106 99 98 103 99 103 104 112 117 112 117 109 114 112 95 98 93 90 92 86 78 73 67 61 53 40 44 46
256 78 78 87 92 109 102 95 100 119 110 112 119 125 132 140 144 147 136 122 116 108 96 89 92 90 94 97 107 100 103 113 99 92 99 86 82 85 92 93 85 71 70 58 36 4 352 29 60
104 78 80 101 102 114 112 79 58 73 96 104 114 132 139 144 144 141 132 125 116 109 102 88 89 86 86 87 89 89 80 69 70 71 78 74 73 74 91 93 87 71 52 39 23 20 28 34 43
152 134 129 116 119 120 119 104 79 95 101 112 123 132 141 146 142 136 135 132 124 121 113 97 88 89 84 85 86 91 85 60 64 51 66 77 77 55 73 77 69 57 49 46 30 27 35 28 32
135 145 155 156 159 156 150 149 168 142 129 127 134 138 153 145 143 144 144 137 132 130 118 106 94 87 86 88 76 72 71 72 69 57 57 68 76 68 63 61 58 55 51 50 45 36 50 33 38
180 184 186 190 186 175 178 196 179 147 144 145 149 149 146 135 139 144 146 139 133 130 123 114 111 103 95 92 80 76 70 79 74 67 56 58 72 75 75 66 53 49 45 43 51 37 49 42 39
212 210 205 198 197 191 222 205 151 154 165 162 160 148 145 145 149 137 132 132 130 130 127 120 122 114 108 102 88 80 69 71 73 71 65 59 65 74 77 70 54 58 48 43 42 41 35 34 33
222 227 213 191 206 211 227 198 156 172 184 175 166 160 160 162 162 143 139 141 139 138 136 135 131 124 112 104 98 88 83 81 76 63 53 49 57 68 74 65 60 61 56 35 29 38 34 24 22
250 249 230 210 198 218 228 202 175 185 192 183 162 157 154 172 167 150 138 131 133 138 142 141 138 138 124 117 108 95 76 72 84 76 58 51 59 64 73 73 62 67 59 28 33 36 20 17 357
287 276 263 231 193 227 235 224 187 181 186 182 165 155 157 166 148 143 142 141 145 148 148 141 145 149 134 127 122 125 126 109 87 78 63 61 63 63 72 53 61 69 69 54 36 48 14 343 355
272 270 262 245 206 241 242 238 192 182 185 184 170 159 159 151 134 133 146 144 153 155 151 153 152 151 139 138 147 147 143 143 128 92 64 70 77 75 78 67 49 76 65 40 20 36 11 332 353
266 273 279 281 243 242 252 245 205 182 174 171 171 158 149 130 133 125 131 140 145 143 151 155 151 141 139 135 132 134 134 134 116 131 141 72 65 62 65 66 60 72 79 64 13 42 21 311 315
271 292 291 277 264 254 237 254 200 183 175 173 168 158 146 138 133 127 119 114 138 146 150 163 158 147 142 141 148 156 148 154 164 165 155 138 95 84 74 65 87 88 67 86 345 31 341 355 326
288 304 281 267 263 270 253 255 206 178 178 176 165 158 148 138 132 130 126 119 105 118 147 159 150 142 139 140 166 176 161 173 165 148 144 162 162 113 82 54 73 59 39 50 23 24 1 353 344
274 278 263 249 248 254 244 242 219 177 166 158 150 147 144 129 126 129 124 116 102 88 88 137 148 145 150 163 174 170 180 174 157 154 162 171 155 162 127 78 55 80 46 47 24 4 25 340 344
258 275 264 228 220 232 225 227 174 121 135 142 147 143 136 133 136 134 124 122 119 116 112 122 136 153 168 172 168 167 183 176 164 157 170 175 169 164 175 132 246 76 60 49 58 14 351 342 2
248 254 271 281 272 278 245 208 123 110 112 121 136 141 141 145 146 140 135 141 144 138 139 145 147 152 168 172 179 172 167 166 165 176 170 176 188 176 157 151 157 114 103 74 75 23 350 346 353
259 253 275 289 288 276 233 152 140 130 121 123 131 144 152 151 145 142 144 150 149 151 160 168 161 162 162 171 173 165 173 156 176 182 166 160 150 142 134 137 131 126 119 113 102 78 331 350 332
248 281 282 271 288 275 250 224 162 142 136 137 141 136 140 136 141 141 146 151 155 167 176 176 169 169 160 142 171 170 163 165 171 176 159 151 161 159 154 153 151 150 129 107 92 102 328 44 356
229 241 260 274 265 280 288 338 84 130 145 150 143 136 133 137 139 145 150 152 155 160 169 172 176 171 165 156 146 153 165 162 166 177 163 150 149 156 149 150 151 149 138 137 113 128 360 37 349
253 250 253 266 282 285 284 306 79 101 112 125 129 131 141 140 144 145 145 141 155 168 175 177 172 164 169 159 147 143 148 124 142 150 125 134 141 164 154 142 132 121 118 123 136 195 261 274 309
Height
1497 1497 1497 1499 1500 1502 1504 1501 1497 1499 1500 1502 1502 1501 1506 1509 1515 1525 1525 1523 1523 1521 1521 1520 1520 1519 1519 1519 1519 1518 1518 1517 1517 1517 1517 1517 1517 1517 1517 1517 1517 1517 1517 1517 1517 1517 1517 1517 1517
1497 1499 1500 1500 1502 1510 1509 1502 1502 1502 1503 1503 1503 1505 1508 1513 1518 1521 1523 1523 1523 1522 1521 1521 1521 1521 1520 1520 1520 1520 1519 1519 1518 1518 1518 1518 1518 1518 1519 1519 1519 1518 1518 1518 1518 1518 1519 1519 1519
1498 1499 1501 1499 1503 1508 1510 1503 1503 1504 1504 1504 1506 1508 1512 1518 1520 1521 1523 1524 1524 1523 1522 1522 1522 1522 1522 1521 1521 1521 1521 1520 1520 1520 1520 1520 1520 1520 1520 1520 1520 1520 1520 1520 1520 1520 1520 1520 1520
1500 1501 1500 1502 1507 1503 1502 1503 1503 1504 1505 1505 1507 1512 1517 1520 1521 1522 1523 1525 1524 1524 1523 1523 1523 1523 1523 1523 1523 1522 1522 1522 1522 1522 1522 1522 1522 1522 1522 1521 1521 1521 1521 1521 1522 1522 1522 1522 1522
1502 1501 1502 1506 1506 1502 1501 1502 1503 1504 1505 1507 1509 1515 1520 1523 1523 1523 1524 1525 1525 1525 1524 1524 1524 1524 1524 1524 1524 1524 1524 1524 1524 1524 1524 1524 1524 1524 1523 1523 1523 1523 1523 1523 1523 1523 1523 1523 1523
1503 1500 1506 1510 1507 1504 1503 1504 1504 1505 1507 1509 1511 1515 1522 1524 1524 1524 1525 1526 1526 1526 1526 1526 1526 1526 1526 1525 1525 1526 1526 1525 1526 1526 1526 1526 1526 1525 1525 1525 1525 1524 1524 1525 1525 1525 1525 1525 1525
1503 1501 1505 1507 1509 1507 1505 1505 1506 1507 1509 1510 1511 1515 1522 1524 1524 1525 1526 1527 1527 1527 1527 1527 1527 1527 1527 1527 1527 1527 1527 1527 1527 1527 1527 1527 1527 1527 1527 1527 1527 1526 1526 1526 1526 1526 1526 1526 1526
1502 1502 1504 1506 1510 1509 1506 1506 1507 1509 1511 1512 1513 1516 1521 1524 1525 1526 1526 1527 1528 1528 1528 1529 1529 1529 1529 1528 1529 1529 1529 1529 1529 1529 1529 1529 1529 1529 1529 1529 1529 1528 1528 1528 1528 1528 1528 1528 1528
1502 1505 1507 1506 1507 1507 1506 1507 1509 1511 1512 1513 1515 1517 1520 1523 1524 1526 1527 1528 1529 1529 1530 1530 1530 1530 1530 1530 1530 1530 1530 1530 1531 1531 1531 1531 1531 1531 1531 1531 1531 1530 1530 1530 1530 1530 1530 1529 1529
1502 1506 1504 1501 1502 1505 1506 1508 1509 1511 1513 1515 1517 1519 1521 1523 1524 1526 1526 1528 1529 1530 1531 1531 1531 1531 1531 1531 1531 1531 1531 1531 1532 1532 1532 1532 1532 1533 1533 1533 1532 1532 1532 1532 1531 1531 1531 1531 1530
1500 1503 1501 1502 1503 1506 1507 1509 1509 1511 1513 1516 1518 1520 1522 1523 1524 1526 1527 1528 1529 1530 1531 1531 1532 1532 1532 1532 1532 1532 1533 1533 1533 1533 1533 1534 1534 1534 1534 1534 1534 1533 1533 1533 1533 1532 1532 1532 1532
1501 1501 1502 1503 1505 1507 1508 1510 1510 1511 1514 1516 1518 1520 1522 1523 1524 1526 1527 1528 1529 1530 1531 1532 1532 1533 1532 1533 1533 1533 1533 1533 1534 1534 1534 1535 1535 1535 1535 1535 1535 1535 1534 1534 1534 1534 1534 1533 1533
1502 1503 1504 1505 1507 1508 1509 1510 1512 1514 1515 1517 1519 1520 1522 1523 1524 1526 1527 1528 1529 1530 1531 1532 1533 1533 1533 1533 1533 1534 1534 1534 1534 1534 1535 1535 1535 1535 1536 1536 1536 1535 1535 1535 1535 1534 1534 1534 1534
1502 1503 1504 1505 1506 1508 1509 1511 1512 1514 1515 1517 1519 1520 1522 1523 1524 1525 1527 1528 1529 1530 1531 1532 1532 1533 1533 1533 1533 1534 1534 1535 1535 1535 1535 1535 1536 1536 1536 1536 1536 1536 1536 1536 1535 1535 1535 1535 1534
1502 1503 1505 1505 1505 1507 1509 1511 1511 1513 1515 1517 1518 1520 1522 1523 1524 1525 1526 1528 1529 1529 1531 1531 1532 1533 1533 1533 1533 1534 1534 1535 1535 1535 1535 1535 1536 1536 1536 1536 1536 1536 1536 1536 1536 1535 1535 1535 1535
1501 1504 1509 1504 1503 1505 1510 1516 1510 1512 1514 1515 1517 1519 1521 1523 1524 1525 1526 1527 1528 1529 1530 1531 1532 1532 1532 1533 1533 1534 1534 1534 1535 1535 1535 1536 1536 1536 1536 1536 1536 1536 1536 1536 1536 1536 1536 1536 1535
1503 1507 1507 1505 1502 1503 1507 1511 1509 1511 1512 1514 1515 1517 1519 1522 1523 1524 1525 1526 1527 1528 1529 1530 1531 1532 1532 1533 1533 1534 1534 1534 1535 1535 1535 1536 1536 1536 1536 1536 1537 1536 1536 1536 1536 1536 1536 1536 1535
1507 1503 1503 1504 1501 1502 1505 1507 1507 1509 1510 1512 1514 1516 1518 1520 1522 1523 1524 1526 1527 1528 1529 1529 1530 1531 1532 1532 1533 1533 1534 1534 1535 1535 1535 1535 1536 1536 1536 1536 1536 1536 1536 1536 1536 1536 1536 1536 1536
1498 1499 1502 1500 1497 1501 1504 1505 1505 1506 1508 1510 1512 1514 1516 1518 1520 1521 1523 1524 1526 1527 1528 1528 1529 1530 1531 1531 1532 1532 1533 1534 1535 1535 1535 1535 1535 1535 1536 1536 1536 1536 1536 1536 1536 1536 1536 1536 1536
1498 1501 1501 1498 1496 1499 1502 1502 1501 1503 1506 1508 1510 1512 1515 1517 1519 1520 1522 1523 1525 1526 1527 1527 1528 1529 1530 1530 1531 1532 1533 1534 1534 1534 1535 1535 1535 1535 1535 1535 1535 1536 1536 1535 1535 1535 1535 1535 1535
1500 1501 1500 1501 1497 1497 1501 1504 1501 1500 1503 1506 1508 1510 1513 1515 1517 1518 1520 1522 1523 1524 1525 1526 1527 1528 1529 1529 1530 1531 1532 1533 1533 1533 1534 1534 1534 1535 1535 1535 1535 1535 1535 1535 1535 1535 1535 1535 1535
1503 1496 1497 1499 1504 1505 1501 1512 1501 1498 1500 1502 1505 1508 1511 1513 1515 1517 1518 1520 1521 1522 1524 1525 1525 1526 1527 1528 1529 1530 1530 1531 1531 1532 1533 1533 1534 1534 1534 1534 1534 1535 1535 1535 1534 1534 1534 1534 1534
1500 1497 1497 1498 1502 1504 1499 1505 1500 1494 1500 1501 1503 1506 1509 1512 1514 1516 1517 1518 1520 1520 1522 1523 1524 1525 1526 1526 1527 1528 1529 1529 1530 1531 1531 1532 1532 1533 1533 1533 1534 1534 1534 1534 1534 1533 1533 1534 1534
1497 1498 1496 1496 1501 1513 1499 1503 1502 1493 1495 1497 1501 1505 1508 1511 1513 1515 1516 1518 1519 1519 1520 1521 1522 1523 1524 1525 1526 1527 1527 1528 1529 1529 1530 1531 1531 1532 1532 1532 1532 1532 1533 1533 1532 1532 1532 1533 1533
1499 1507 1514 1512 1513 1507 1489 1496 1499 1489 1489 1494 1499 1503 1506 1509 1512 1514 1515 1516 1517 1518 1519 1520 1521 1521 1522 1523 1524 1525 1526 1526 1527 1528 1528 1529 1530 1530 1530 1530 1531 1531 1531 1531 1531 1531 1531 1531 1532
1500 1505 1517 1521 1513 1502 1490 1496 1496 1488 1490 1494 1498 1501 1505 1508 1510 1512 1514 1515 1516 1517 1518 1518 1519 1520 1521 1521 1522 1523 1524 1525 1525 1526 1527 1528 1528 1528 1529 1529 1530 1530 1530 1530 1530 1530 1530 1530 1530
1502 1502 1499 1506 1503 1505 1496 1492 1493 1489 1491 1494 1497 1500 1503 1506 1509 1511 1513 1514 1515 1516 1516 1517 1518 1518 1519 1520 1521 1521 1522 1523 1524 1525 1525 1526 1526 1527 1527 1527 1528 1528 1529 1529 1528 1528 1528 1529 1529
1499 1500 1503 1508 1514 1514 1502 1496 1498 1495 1494 1495 1497 1500 1502 1505 1507 1509 1511 1512 1514 1515 1515 1516 1516 1517 1517 1518 1519 1520 1520 1521 1522 1523 1523 1524 1525 1525 1525 1526 1526 1527 1527 1527 1527 1527 1527 1527 1527
1500 1502 1503 1504 1504 1514 1514 1507 1487 1490 1491 1494 1496 1499 1501 1504 1506 1508 1510 1511 1512 1513 1514 1514 1515 1516 1516 1516 1517 1518 1518 1519 1520 1521 1521 1522 1522 1523 1524 1524 1524 1525 1525 1525 1525 1526 1526 1526 1526
1496 1498 1502 1512 1509 1503 1509 1507 1486 1488 1490 1493 1496 1498 1501 1503 1504 1506 1508 1509 1510 1511 1512 1513 1513 1513 1514 1515 1515 1516 1516 1517 1518 1518 1519 1520 1520 1521 1522 1522 1522 1523 1523 1523 1524 1524 1524 1524 1524